GLD1410 SBJD-SBCT

Flight info

Callsign GLD1410
Flight time 0h 37m
Altitude 3100
Route DCT OBLIL DCT SOVSI DCT RAXIT DCT SVTA
Aircraft C700/M-SDFGIRY/S

Departure

Time 2026-05-04 23:51
Airport Comte. Rolim Adolfo Amaro–Jundiaí State Airport (SBJD)

Arrival

Time 2026-05-05 00:29
Airport Curitiba-Afonso Pena International Airport (SBCT)
Time Latitude Longitude Altitude Speed Heading
2026-05-04 23:38 -23.18026 -46.94254 2511 ft 0 kts 248°
2026-05-04 23:48 -23.18030 -46.94265 2504 ft 6 kts 248°
2026-05-04 23:48 -23.18007 -46.94326 2510 ft 12 kts 330°
2026-05-04 23:48 -23.17908 -46.94374 2510 ft 19 kts 336°
2026-05-04 23:48 -23.17769 -46.94439 2510 ft 25 kts 337°
2026-05-04 23:49 -23.17594 -46.94519 2509 ft 30 kts 337°
2026-05-04 23:49 -23.17509 -46.94561 2508 ft 0 kts 329°
2026-05-04 23:49 -23.17508 -46.94561 2508 ft 0 kts 329°
2026-05-04 23:50 -23.17507 -46.94562 2508 ft 2 kts 329°
2026-05-04 23:50 -23.17489 -46.94625 2510 ft 15 kts 260°
2026-05-04 23:50 -23.17551 -46.94639 2511 ft 0 kts 156°
2026-05-04 23:51 -23.17748 -46.94544 2510 ft 82 kts 156°
2026-05-04 23:51 -23.18586 -46.94152 2605 ft 172 kts 154°
2026-05-04 23:51 -23.19587 -46.93247 3616 ft 202 kts 126°
2026-05-04 23:52 -23.20077 -46.91759 4739 ft 225 kts 96°
2026-05-04 23:52 -23.20189 -46.90018 4895 ft 233 kts 94°
2026-05-04 23:52 -23.20357 -46.88296 4825 ft 225 kts 97°
2026-05-04 23:52 -23.20587 -46.86633 4737 ft 220 kts 93°
2026-05-04 23:53 -23.20217 -46.85101 4687 ft 214 kts 52°
2026-05-04 23:53 -23.18985 -46.84271 4692 ft 213 kts 12°
2026-05-04 23:53 -23.17540 -46.84468 4688 ft 214 kts 332°
2026-05-04 23:53 -23.16532 -46.85635 4686 ft 219 kts 293°
2026-05-04 23:54 -23.16416 -46.87269 4692 ft 221 kts 262°
2026-05-04 23:54 -23.16672 -46.88903 4690 ft 220 kts 260°
2026-05-04 23:54 -23.16925 -46.90556 4696 ft 221 kts 261°
2026-05-04 23:54 -23.17156 -46.92205 4693 ft 221 kts 262°
2026-05-04 23:55 -23.17417 -46.93841 4686 ft 220 kts 254°
2026-05-04 23:55 -23.18122 -46.95290 4735 ft 224 kts 232°
2026-05-04 23:55 -23.20520 -46.97945 5689 ft 268 kts 227°
2026-05-04 23:56 -23.21832 -46.99418 5685 ft 274 kts 226°
2026-05-04 23:56 -23.23197 -47.00888 6706 ft 268 kts 226°
2026-05-04 23:56 -23.24527 -47.02314 8283 ft 270 kts 227°
2026-05-04 23:56 -23.25838 -47.03804 9967 ft 276 kts 228°
2026-05-04 23:57 -23.27219 -47.05348 11216 ft 298 kts 227°
2026-05-04 23:57 -23.28720 -47.06995 12590 ft 309 kts 226°
2026-05-04 23:57 -23.30222 -47.08624 14262 ft 312 kts 226°
2026-05-04 23:57 -23.31778 -47.10310 15665 ft 319 kts 226°
2026-05-04 23:58 -23.33359 -47.12038 17050 ft 325 kts 226°
2026-05-04 23:58 -23.34967 -47.13797 18431 ft 331 kts 227°
2026-05-04 23:58 -23.36614 -47.15591 19535 ft 338 kts 226°
2026-05-04 23:58 -23.38283 -47.17411 20742 ft 342 kts 226°
2026-05-04 23:59 -23.39972 -47.19267 21916 ft 347 kts 227°
2026-05-04 23:59 -23.41485 -47.21333 23016 ft 352 kts 235°
2026-05-04 23:59 -23.42918 -47.23472 23709 ft 359 kts 234°
2026-05-04 23:59 -23.44431 -47.25645 24722 ft 360 kts 232°
2026-05-05 00:00 -23.46183 -47.27608 25749 ft 364 kts 223°
2026-05-05 00:00 -23.46839 -47.28208 26095 ft 366 kts 221°
2026-05-05 00:00 -23.50508 -47.30609 27677 ft 377 kts 207°
2026-05-05 00:00 -23.53017 -47.31540 28596 ft 385 kts 199°
2026-05-05 00:01 -23.55639 -47.32236 29489 ft 390 kts 198°
2026-05-05 00:01 -23.58250 -47.32949 30353 ft 395 kts 199°
2026-05-05 00:01 -23.60931 -47.33684 31069 ft 401 kts 199°
2026-05-05 00:01 -23.63704 -47.34442 31192 ft 422 kts 199°
2026-05-05 00:02 -23.66623 -47.35237 31202 ft 444 kts 198°
2026-05-05 00:02 -23.69682 -47.36065 31201 ft 459 kts 198°
2026-05-05 00:02 -23.72800 -47.36909 31210 ft 464 kts 198°
2026-05-05 00:03 -23.79094 -47.38623 31204 ft 466 kts 198°
2026-05-05 00:03 -23.85346 -47.40330 31199 ft 469 kts 198°
2026-05-05 00:04 -23.91679 -47.42055 31197 ft 469 kts 198°
2026-05-05 00:04 -23.98016 -47.43790 31199 ft 469 kts 198°
2026-05-05 00:05 -24.04359 -47.45522 31199 ft 470 kts 198°
2026-05-05 00:05 -24.10525 -47.47616 31190 ft 464 kts 206°
2026-05-05 00:06 -24.16095 -47.51077 31174 ft 460 kts 215°
2026-05-05 00:06 -24.21515 -47.54826 31177 ft 460 kts 215°
2026-05-05 00:07 -24.26911 -47.58591 31170 ft 460 kts 215°
2026-05-05 00:07 -24.32275 -47.62319 31171 ft 459 kts 215°
2026-05-05 00:08 -24.37661 -47.66082 31169 ft 459 kts 216°
2026-05-05 00:08 -24.42492 -47.70594 31157 ft 455 kts 228°
2026-05-05 00:09 -24.46264 -47.76182 31153 ft 455 kts 238°
2026-05-05 00:09 -24.49750 -47.81985 31158 ft 455 kts 237°
2026-05-05 00:10 -24.53193 -47.87744 31159 ft 456 kts 237°
2026-05-05 00:10 -24.56652 -47.93554 31160 ft 454 kts 237°
2026-05-05 00:11 -24.60115 -47.99351 31168 ft 453 kts 237°
2026-05-05 00:11 -24.63565 -48.05141 31162 ft 455 kts 237°
2026-05-05 00:12 -24.66993 -48.10918 31169 ft 454 kts 237°
2026-05-05 00:12 -24.70451 -48.16730 31168 ft 454 kts 237°
2026-05-05 00:13 -24.73885 -48.22508 30755 ft 444 kts 237°
2026-05-05 00:13 -24.75547 -48.25317 30105 ft 432 kts 237°
2026-05-05 00:13 -24.77160 -48.28051 29469 ft 421 kts 237°
2026-05-05 00:13 -24.78754 -48.30742 28864 ft 419 kts 237°
2026-05-05 00:14 -24.80344 -48.33421 28266 ft 417 kts 237°
2026-05-05 00:14 -24.81924 -48.36090 27664 ft 415 kts 237°
2026-05-05 00:14 -24.83472 -48.38713 27077 ft 413 kts 237°
2026-05-05 00:14 -24.85034 -48.41358 26483 ft 411 kts 237°
2026-05-05 00:15 -24.86590 -48.43991 25892 ft 409 kts 237°
2026-05-05 00:15 -24.88134 -48.46605 25303 ft 406 kts 237°
2026-05-05 00:15 -24.89668 -48.49205 24722 ft 403 kts 237°
2026-05-05 00:15 -24.91188 -48.51787 24149 ft 401 kts 236°
2026-05-05 00:16 -24.92707 -48.54359 23536 ft 400 kts 237°
2026-05-05 00:16 -24.94192 -48.56881 22956 ft 395 kts 237°
2026-05-05 00:16 -24.95682 -48.59412 22390 ft 392 kts 237°
2026-05-05 00:16 -24.97163 -48.61935 21822 ft 391 kts 237°
2026-05-05 00:17 -24.98636 -48.64440 21256 ft 388 kts 237°
2026-05-05 00:17 -25.00100 -48.66922 20700 ft 384 kts 237°
2026-05-05 00:17 -25.01547 -48.69387 20144 ft 382 kts 237°
2026-05-05 00:17 -25.02985 -48.71842 19587 ft 380 kts 237°
2026-05-05 00:18 -25.04416 -48.74280 19050 ft 377 kts 237°
2026-05-05 00:18 -25.05839 -48.76699 18507 ft 375 kts 237°
2026-05-05 00:18 -25.07231 -48.79076 17937 ft 372 kts 237°
2026-05-05 00:18 -25.08630 -48.81469 17401 ft 370 kts 237°
2026-05-05 00:19 -25.10024 -48.83847 16866 ft 369 kts 237°
2026-05-05 00:19 -25.11418 -48.86226 16337 ft 368 kts 238°
2026-05-05 00:19 -25.12803 -48.88595 15806 ft 367 kts 238°
2026-05-05 00:19 -25.14182 -48.90955 15284 ft 366 kts 238°
2026-05-05 00:20 -25.15561 -48.93311 14753 ft 364 kts 238°
2026-05-05 00:20 -25.16934 -48.95657 14230 ft 363 kts 238°
2026-05-05 00:20 -25.18254 -48.97918 13668 ft 346 kts 238°
2026-05-05 00:20 -25.19528 -49.00099 13077 ft 331 kts 238°
2026-05-05 00:21 -25.20749 -49.02189 12507 ft 318 kts 238°
2026-05-05 00:21 -25.21935 -49.04211 11951 ft 309 kts 238°
2026-05-05 00:21 -25.23085 -49.06169 11411 ft 300 kts 238°
2026-05-05 00:21 -25.24214 -49.08083 10891 ft 294 kts 238°
2026-05-05 00:22 -25.25317 -49.09955 10372 ft 288 kts 238°
2026-05-05 00:22 -25.26406 -49.11791 9850 ft 283 kts 238°
2026-05-05 00:22 -25.27480 -49.13596 9294 ft 279 kts 238°
2026-05-05 00:22 -25.28183 -49.14778 8942 ft 277 kts 238°
2026-05-05 00:23 -25.29582 -49.17116 8252 ft 274 kts 239°
2026-05-05 00:23 -25.30619 -49.18837 7782 ft 261 kts 239°
2026-05-05 00:23 -25.31579 -49.20407 7775 ft 233 kts 238°
2026-05-05 00:23 -25.32164 -49.21356 7774 ft 220 kts 238°
2026-05-05 00:24 -25.33002 -49.22704 7773 ft 215 kts 238°
2026-05-05 00:24 -25.33847 -49.24069 7775 ft 215 kts 239°
2026-05-05 00:24 -25.34692 -49.25433 7776 ft 215 kts 238°
2026-05-05 00:24 -25.35662 -49.26707 7711 ft 221 kts 229°
2026-05-05 00:25 -25.36721 -49.27937 7515 ft 220 kts 231°
2026-05-05 00:25 -25.37806 -49.29122 7245 ft 222 kts 218°
2026-05-05 00:25 -25.39220 -49.29829 6936 ft 226 kts 199°
2026-05-05 00:25 -25.41305 -49.29825 6517 ft 232 kts 169°
2026-05-05 00:26 -25.42294 -49.29361 6294 ft 235 kts 152°
2026-05-05 00:26 -25.43509 -49.28161 5905 ft 231 kts 133°
2026-05-05 00:26 -25.44550 -49.26850 5504 ft 227 kts 132°
2026-05-05 00:26 -25.45587 -49.25566 4971 ft 213 kts 132°
2026-05-05 00:27 -25.46531 -49.24463 4779 ft 188 kts 137°
2026-05-05 00:27 -25.47470 -49.23511 4335 ft 178 kts 136°
2026-05-05 00:27 -25.48259 -49.22682 4226 ft 152 kts 136°
2026-05-05 00:27 -25.49007 -49.21867 4026 ft 148 kts 135°
2026-05-05 00:28 -25.49711 -49.21077 3678 ft 137 kts 133°
2026-05-05 00:28 -25.50326 -49.20383 3499 ft 123 kts 135°
2026-05-05 00:28 -25.50937 -49.19720 3382 ft 122 kts 135°
2026-05-05 00:28 -25.51539 -49.19043 3210 ft 123 kts 134°
2026-05-05 00:29 -25.52143 -49.18363 3044 ft 124 kts 134°
2026-05-05 00:29 -25.52698 -49.17735 2989 ft 100 kts 137°
2026-05-05 00:29 -25.53065 -49.17336 2991 ft 37 kts 134°
2026-05-05 00:29 -25.53143 -49.17277 2991 ft 5 kts 225°
2026-05-05 00:30 -25.53184 -49.17323 2990 ft 12 kts 224°
2026-05-05 00:30 -25.53211 -49.17364 2990 ft 3 kts 276°
2026-05-05 00:30 -25.53195 -49.17407 2990 ft 9 kts 309°
2026-05-05 00:30 -25.53138 -49.17479 2990 ft 15 kts 319°
2026-05-05 00:31 -25.53046 -49.17580 2990 ft 22 kts 315°
2026-05-05 00:31 -25.52981 -49.17674 2990 ft 18 kts 278°
2026-05-05 00:31 -25.52980 -49.17746 2990 ft 11 kts 271°
2026-05-05 00:31 -25.52979 -49.17798 2990 ft 0 kts 271°
2026-05-05 00:32 -25.52974 -49.17866 2990 ft 18 kts 276°
2026-05-05 00:32 -25.53060 -49.17982 2990 ft 23 kts 224°
2026-05-05 00:32 -25.53090 -49.18043 2990 ft 2 kts 310°